Home   Weather   Zwettl   Past weeks

Flag for Austria Past Weather in Zwettl, Lower Austria, Austria — Yesterday and Last 2 Weeks

Now
54 °F

Sunny.


Feels Like: 54 °F
Forecast: 46 / 74 °F
Wind: 3 mph from North

Location: Retz

Current Time: Aug 31, 2016 at 8:20:17 AM

Latest Report: Aug 31, 2016 at 7:00 AM


Visibility: 14 mi

Pressure: 30.26 "Hg (28.42 "Hg at 524m altitude)

Humidity: 69%

Dew Point: 44 °F

Location of ZwettlLocation

Past Weather in Zwettl — Graph

°F

Zwettl Temperature Yesterday

Maximum temperature yesterday: 75 °F (at 5:00 PM)
Minimum temperature yesterday: 62 °F (at 6:00 AM)
Average temperature yesterday: 68 °F

High & Low Weather Summary for the Past Weeks

 TemperatureHumidityPressure
High86 °F (Aug 28, 5:00 PM)97% (Aug 20, 5:00 AM)30.36 "Hg (Aug 20, 5:00 AM)
Low54 °F (Aug 31, 6:00 AM)31% (Aug 18, 3:00 PM)29.76 "Hg (Aug 18, 6:00 PM)
Average68 °F66%30.07 "Hg
* Reported Aug 16 7:00 AM — Aug 31 7:00 AM, Zwettl, Weather by CustomWeather, © 2016

Note: Actual official high and low records may vary slightly from our data, if they occured in-between our weather recording intervals... More about our weather records

Advertising

Zwettl Weather History for the Previous 24 Hours

Scroll right to see more
 ConditionsComfort  
Time TempWeatherWind HumidityBarometerVisibility
7:00 AM
Wed, Aug 31
54 °FSunny.3 mph69%30.26 "Hg14 mi
6:00 AM54 °FCool.3 mph69%30.27 "HgN/A
5:00 AM55 °FCool.3 mph67%30.26 "HgN/A
4:00 AM55 °FCool.2 mph67%30.27 "HgN/A
3:00 AM58 °FCool.2 mph61%30.27 "HgN/A
2:00 AM60 °FRefreshingly cool.5 mph59%30.26 "HgN/A
1:00 AM61 °FRefreshingly cool.5 mph56%30.26 "HgN/A
12:00 AM62 °FMild.5 mph55%30.26 "HgN/A
11:00 PM
Tue, Aug 30
63 °FMild.6 mph50%30.25 "HgN/A
10:00 PM64 °FMild.3 mph50%30.23 "HgN/A
9:00 PM65 °FMild.3 mph51%30.22 "HgN/A
8:00 PM67 °FPassing clouds.2 mph49%30.20 "Hg14 mi
7:00 PM71 °FMild.3 mph44%30.17 "HgN/A
6:00 PM74 °FMild.5 mph42%30.17 "HgN/A
5:00 PM75 °FMild.3 mph42%30.17 "HgN/A
4:00 PM75 °FMild.3 mph43%30.17 "HgN/A
3:00 PM75 °FMild.3 mph45%30.19 "HgN/A
2:00 PM73 °FPartly sunny.5 mph49%30.20 "Hg19 mi
1:00 PM75 °FMild.3 mph46%30.20 "HgN/A
12:00 PM75 °FMild.2 mph52%30.19 "HgN/A
11:00 AM72 °FMild.3 mph57%30.21 "HgN/A
10:00 AM67 °FMild.1 mph68%30.22 "HgN/A
9:00 AM64 °FMild.1 mph73%30.21 "HgN/A
8:00 AM63 °FOvercast.3 mph74%30.18 "Hg12 mi
Weather by CustomWeather, © 2016

See weather overviewHow to use our weather pages